Time,TemperatureF,DewpointF,PressureIn,WindDirection,WindDirectionDegrees,WindSpeedMPH,WindSpeedGustMPH,Humidity,HourlyPrecipIn,Conditions,Clouds,dailyrainin,SoftwareType,DateUTC
2013-02-17 00:00:00,33.9,32.1,29.96,NNE,20,6.0,6.0,93,0.00,,,0.00,Wunderground v.1.15,2013-02-17 05:00:00,
2013-02-17 00:05:00,34.0,31.9,29.96,WNW,303,4.0,15.0,92,0.00,,,0.00,Wunderground v.1.15,2013-02-17 05:05:00,
2013-02-17 00:10:00,34.2,31.8,29.96,WNW,302,4.0,5.0,91,0.00,,,0.01,Wunderground v.1.15,2013-02-17 05:10:00,
2013-02-17 00:20:00,34.3,31.4,29.97,WNW,301,4.0,5.0,89,0.00,,,0.01,Wunderground v.1.15,2013-02-17 05:20:00,
2013-02-17 00:25:00,34.3,31.1,29.97,NW,311,4.0,7.0,88,0.00,,,0.01,Wunderground v.1.15,2013-02-17 05:25:00,
2013-02-17 00:30:00,34.2,31.0,29.98,WNW,296,5.0,5.0,88,0.00,,,0.01,Wunderground v.1.15,2013-02-17 05:30:00,
2013-02-17 00:40:00,34.2,31.0,29.98,WSW,256,4.0,8.0,88,0.00,,,0.01,Wunderground v.1.15,2013-02-17 05:40:00,
2013-02-17 00:50:00,33.8,30.6,29.98,NW,312,6.0,6.0,88,0.00,,,0.01,Wunderground v.1.15,2013-02-17 05:50:00,
2013-02-17 00:55:00,33.7,30.8,29.98,WNW,301,5.0,6.0,89,0.00,,,0.01,Wunderground v.1.15,2013-02-17 05:55:00,
2013-02-17 01:00:00,33.7,30.8,29.99,WNW,288,4.0,5.0,89,0.00,,,0.01,Wunderground v.1.15,2013-02-17 06:00:00,
2013-02-17 01:10:00,33.4,30.8,29.99,WNW,290,6.0,8.0,90,0.00,,,0.01,Wunderground v.1.15,2013-02-17 06:10:00,
2013-02-17 01:20:00,33.3,30.7,29.99,West,279,6.0,7.0,90,0.00,,,0.01,Wunderground v.1.15,2013-02-17 06:20:00,
2013-02-17 01:30:00,33.2,30.9,30.00,WNW,294,6.0,8.0,91,0.00,,,0.01,Wunderground v.1.15,2013-02-17 06:30:00,
2013-02-17 01:40:00,33.1,30.8,30.00,West,274,4.0,4.0,91,0.00,,,0.01,Wunderground v.1.15,2013-02-17 06:40:00,
2013-02-17 01:45:00,32.9,30.6,30.00,West,263,3.0,7.0,91,0.00,,,0.01,Wunderground v.1.15,2013-02-17 06:45:00,
2013-02-17 01:55:00,32.9,30.8,30.00,WNW,283,4.0,4.0,92,0.00,,,0.01,Wunderground v.1.15,2013-02-17 06:55:00,
2013-02-17 02:05:00,32.7,30.6,30.00,WNW,290,4.0,8.0,92,0.00,,,0.01,Wunderground v.1.15,2013-02-17 07:05:00,
2013-02-17 02:15:00,32.6,30.5,30.00,NW,319,5.0,8.0,92,0.00,,,0.01,Wunderground v.1.15,2013-02-17 07:15:00,
2013-02-17 02:25:00,32.6,30.5,30.00,WNW,301,7.0,7.0,92,0.00,,,0.01,Wunderground v.1.15,2013-02-17 07:25:00,
2013-02-17 02:30:00,32.6,30.5,30.00,WNW,288,6.0,7.0,92,0.00,,,0.01,Wunderground v.1.15,2013-02-17 07:30:00,
2013-02-17 02:40:00,32.6,30.5,30.00,West,279,5.0,9.0,92,0.00,,,0.01,Wunderground v.1.15,2013-02-17 07:40:00,
2013-02-17 02:50:00,32.5,30.4,30.01,North,351,5.0,5.0,92,0.00,,,0.01,Wunderground v.1.15,2013-02-17 07:50:00,
2013-02-17 02:55:00,32.5,30.4,30.01,WNW,290,5.0,8.0,92,0.00,,,0.01,Wunderground v.1.15,2013-02-17 07:55:00,
2013-02-17 03:00:00,32.4,30.1,30.01,NW,311,6.0,6.0,91,0.00,,,0.01,Wunderground v.1.15,2013-02-17 08:00:00,
2013-02-17 03:10:00,32.3,30.0,30.01,NW,306,6.0,6.0,91,0.00,,,0.01,Wunderground v.1.15,2013-02-17 08:10:00,
2013-02-17 03:20:00,32.2,29.9,30.02,NW,309,6.0,6.0,91,0.00,,,0.01,Wunderground v.1.15,2013-02-17 08:20:00,
2013-02-17 03:30:00,32.1,29.5,30.02,NW,321,5.0,5.0,90,0.00,,,0.01,Wunderground v.1.15,2013-02-17 08:30:00,
2013-02-17 03:35:00,32.1,29.5,30.02,WNW,294,5.0,9.0,90,0.00,,,0.01,Wunderground v.1.15,2013-02-17 08:35:00,
2013-02-17 03:45:00,32.0,29.4,30.02,West,277,4.0,5.0,90,0.00,,,0.01,Wunderground v.1.15,2013-02-17 08:45:00,
2013-02-17 03:55:00,31.8,28.9,30.02,WNW,290,4.0,11.0,89,0.00,,,0.01,Wunderground v.1.15,2013-02-17 08:55:00,
2013-02-17 04:05:00,31.8,28.9,30.03,NW,304,5.0,7.0,89,0.00,,,0.01,Wunderground v.1.15,2013-02-17 09:05:00,
2013-02-17 04:15:00,31.6,28.7,30.03,West,260,4.0,5.0,89,0.00,,,0.01,Wunderground v.1.15,2013-02-17 09:15:00,
2013-02-17 04:20:00,31.5,28.4,30.04,WNW,286,4.0,6.0,88,0.00,,,0.01,Wunderground v.1.15,2013-02-17 09:20:00,
2013-02-17 04:30:00,31.4,28.3,30.04,WNW,294,4.0,6.0,88,0.00,,,0.01,Wunderground v.1.15,2013-02-17 09:30:00,
2013-02-17 04:40:00,31.2,28.1,30.05,WNW,302,5.0,5.0,88,0.00,,,0.01,Wunderground v.1.15,2013-02-17 09:40:00,
2013-02-17 04:50:00,31.0,27.9,30.05,WNW,296,5.0,5.0,88,0.00,,,0.01,Wunderground v.1.15,2013-02-17 09:50:00,
2013-02-17 05:00:00,30.8,27.4,30.05,NW,305,5.0,5.0,87,0.00,,,0.01,Wunderground v.1.15,2013-02-17 10:00:00,
2013-02-17 05:10:00,30.7,27.3,30.06,NW,319,5.0,6.0,87,0.00,,,0.01,Wunderground v.1.15,2013-02-17 10:10:00,
2013-02-17 05:15:00,30.6,27.2,30.06,West,271,6.0,6.0,87,0.00,,,0.01,Wunderground v.1.15,2013-02-17 10:15:00,
2013-02-17 05:25:00,30.5,26.8,30.07,NNW,330,3.0,5.0,86,0.00,,,0.01,Wunderground v.1.15,2013-02-17 10:25:00,
2013-02-17 05:35:00,30.4,26.7,30.07,WNW,286,4.0,5.0,86,0.00,,,0.01,Wunderground v.1.15,2013-02-17 10:35:00,
2013-02-17 05:45:00,30.3,26.6,30.07,NNW,342,4.0,6.0,86,0.00,,,0.01,Wunderground v.1.15,2013-02-17 10:45:00,
2013-02-17 05:50:00,30.2,26.2,30.07,WNW,300,4.0,4.0,85,0.00,,,0.01,Wunderground v.1.15,2013-02-17 10:50:00,
2013-02-17 06:00:00,30.1,26.1,30.07,NW,313,5.0,5.0,85,0.00,,,0.01,Wunderground v.1.15,2013-02-17 11:00:00,
2013-02-17 06:10:00,29.9,25.9,30.07,WNW,287,4.0,4.0,85,0.00,,,0.01,Wunderground v.1.15,2013-02-17 11:10:00,
2013-02-17 06:15:00,29.9,25.9,30.08,WNW,296,4.0,4.0,85,0.00,,,0.01,Wunderground v.1.15,2013-02-17 11:15:00,
2013-02-17 06:20:00,29.8,25.8,30.08,NW,304,5.0,5.0,85,0.00,,,0.01,Wunderground v.1.15,2013-02-17 11:20:00,
2013-02-17 06:30:00,29.6,25.9,30.08,NW,323,5.0,7.0,86,0.00,,,0.01,Wunderground v.1.15,2013-02-17 11:30:00,
2013-02-17 06:40:00,29.6,25.9,30.09,West,273,3.0,8.0,86,0.00,,,0.01,Wunderground v.1.15,2013-02-17 11:40:00,
2013-02-17 06:50:00,29.5,25.8,30.09,WNW,302,4.0,4.0,86,0.00,,,0.01,Wunderground v.1.15,2013-02-17 11:50:00,
2013-02-17 07:00:00,29.4,25.4,30.10,WNW,296,5.0,5.0,85,0.00,,,0.01,Wunderground v.1.15,2013-02-17 12:00:00,
2013-02-17 07:05:00,29.3,25.4,30.10,NW,321,5.0,5.0,85,0.00,,,0.01,Wunderground v.1.15,2013-02-17 12:05:00,
2013-02-17 07:15:00,29.4,25.4,30.11,WNW,294,4.0,9.0,85,0.00,,,0.01,Wunderground v.1.15,2013-02-17 12:15:00,
2013-02-17 07:20:00,29.5,25.5,30.11,NW,311,6.0,6.0,85,0.00,,,0.01,Wunderground v.1.15,2013-02-17 12:20:00,
2013-02-17 07:30:00,29.6,25.4,30.12,WNW,297,4.0,9.0,84,0.00,,,0.01,Wunderground v.1.15,2013-02-17 12:30:00,
2013-02-17 07:40:00,29.8,25.0,30.13,WNW,296,4.0,5.0,82,0.00,,,0.01,Wunderground v.1.15,2013-02-17 12:40:00,
2013-02-17 07:45:00,30.0,24.9,30.13,WNW,298,5.0,7.0,81,0.00,,,0.01,Wunderground v.1.15,2013-02-17 12:45:00,
2013-02-17 07:55:00,30.3,24.6,30.13,WNW,302,5.0,9.0,79,0.00,,,0.01,Wunderground v.1.15,2013-02-17 12:55:00,
2013-02-17 08:00:00,30.5,24.5,30.14,WNW,290,5.0,5.0,78,0.00,,,0.01,Wunderground v.1.15,2013-02-17 13:00:00,
2013-02-17 08:10:00,30.5,24.5,30.15,WNW,300,5.0,5.0,78,0.00,,,0.01,Wunderground v.1.15,2013-02-17 13:10:00,
2013-02-17 08:20:00,30.8,24.1,30.15,West,277,6.0,6.0,76,0.00,,,0.01,Wunderground v.1.15,2013-02-17 13:20:00,
2013-02-17 08:30:00,31.2,24.5,30.15,NW,325,5.0,8.0,76,0.00,,,0.01,Wunderground v.1.15,2013-02-17 13:30:00,
2013-02-17 08:40:00,31.5,23.8,30.16,WNW,286,6.0,6.0,73,0.00,,,0.01,Wunderground v.1.15,2013-02-17 13:40:00,
2013-02-17 08:50:00,31.6,23.6,30.16,WNW,299,7.0,11.0,72,0.00,,,0.01,Wunderground v.1.15,2013-02-17 13:50:00,
2013-02-17 09:00:00,32.2,23.8,30.17,NW,325,6.0,9.0,71,0.00,,,0.01,Wunderground v.1.15,2013-02-17 14:00:00,
2013-02-17 09:10:00,32.3,23.3,30.17,WNW,300,8.0,15.0,69,0.00,,,0.01,Wunderground v.1.15,2013-02-17 14:10:00,
2013-02-17 09:20:00,32.5,23.1,30.17,NW,315,8.0,8.0,68,0.00,,,0.01,Wunderground v.1.15,2013-02-17 14:20:00,
2013-02-17 09:30:00,32.6,22.5,30.17,NW,311,10.0,12.0,66,0.00,,,0.01,Wunderground v.1.15,2013-02-17 14:30:00,
2013-02-17 09:40:00,33.1,23.0,30.17,NW,321,10.0,10.0,66,0.00,,,0.01,Wunderground v.1.15,2013-02-17 14:40:00,
2013-02-17 09:50:00,33.6,22.7,30.17,West,281,8.0,8.0,64,0.00,,,0.01,Wunderground v.1.15,2013-02-17 14:50:00,
2013-02-17 10:00:00,33.8,21.8,30.17,NW,306,10.0,10.0,61,0.00,,,0.02,Wunderground v.1.15,2013-02-17 15:00:00,
2013-02-17 10:10:00,34.1,22.0,30.18,WNW,284,11.0,11.0,61,0.00,,,0.02,Wunderground v.1.15,2013-02-17 15:10:00,
2013-02-17 10:20:00,34.4,21.5,30.18,NW,323,8.0,9.0,59,0.00,,,0.02,Wunderground v.1.15,2013-02-17 15:20:00,
2013-02-17 10:30:00,34.7,21.8,30.18,NW,304,9.0,15.0,59,0.00,,,0.02,Wunderground v.1.15,2013-02-17 15:30:00,
2013-02-17 10:40:00,34.8,21.9,30.18,WNW,290,10.0,12.0,59,0.00,,,0.02,Wunderground v.1.15,2013-02-17 15:40:00,
2013-02-17 10:45:00,35.2,21.9,30.18,NW,310,9.0,12.0,58,0.00,,,0.02,Wunderground v.1.15,2013-02-17 15:45:00,
2013-02-17 10:55:00,35.4,19.5,30.18,NW,315,12.0,13.0,52,0.00,,,0.02,Wunderground v.1.15,2013-02-17 15:55:00,
2013-02-17 11:00:00,35.7,19.3,30.18,WNW,302,12.0,16.0,51,0.00,,,0.02,Wunderground v.1.15,2013-02-17 16:00:00,
2013-02-17 11:10:00,36.1,20.6,30.18,WNW,297,9.0,12.0,53,0.00,,,0.02,Wunderground v.1.15,2013-02-17 16:10:00,
2013-02-17 11:20:00,36.4,20.4,30.18,North,360,9.0,9.0,52,0.00,,,0.02,Wunderground v.1.15,2013-02-17 16:20:00,
2013-02-17 11:25:00,37.0,19.6,30.18,WNW,298,7.0,9.0,49,0.00,,,0.02,Wunderground v.1.15,2013-02-17 16:25:00,
2013-02-17 11:35:00,36.4,17.6,30.18,NW,309,12.0,12.0,46,0.00,,,0.02,Wunderground v.1.15,2013-02-17 16:35:00,
2013-02-17 11:45:00,36.8,18.4,30.17,West,277,9.0,12.0,47,0.00,,,0.02,Wunderground v.1.15,2013-02-17 16:45:00,
2013-02-17 11:55:00,37.3,19.9,30.17,WNW,290,8.0,15.0,49,0.00,,,0.02,Wunderground v.1.15,2013-02-17 16:55:00,
2013-02-17 12:05:00,36.9,18.0,30.17,WNW,296,10.0,11.0,46,0.00,,,0.02,Wunderground v.1.15,2013-02-17 17:05:00,
2013-02-17 12:10:00,37.2,20.2,30.17,NW,311,9.0,11.0,50,0.00,,,0.02,Wunderground v.1.15,2013-02-17 17:10:00,
2013-02-17 12:20:00,37.2,20.2,30.17,West,269,11.0,11.0,50,0.00,,,0.02,Wunderground v.1.15,2013-02-17 17:20:00,
2013-02-17 12:30:00,37.8,19.8,30.17,NE,37,7.0,7.0,48,0.00,,,0.02,Wunderground v.1.15,2013-02-17 17:30:00,
2013-02-17 12:35:00,38.0,19.0,30.17,West,259,7.0,8.0,46,0.00,,,0.02,Wunderground v.1.15,2013-02-17 17:35:00,
2013-02-17 12:45:00,38.4,19.4,30.17,WSW,250,7.0,8.0,46,0.00,,,0.02,Wunderground v.1.15,2013-02-17 17:45:00,
2013-02-17 12:55:00,38.0,17.5,30.17,WNW,302,11.0,11.0,43,0.00,,,0.02,Wunderground v.1.15,2013-02-17 17:55:00,
2013-02-17 13:05:00,38.5,16.8,30.17,NW,309,10.0,11.0,41,0.00,,,0.02,Wunderground v.1.15,2013-02-17 18:05:00,
2013-02-17 13:15:00,38.9,17.2,30.16,NW,309,9.0,11.0,41,0.00,,,0.02,Wunderground v.1.15,2013-02-17 18:15:00,
2013-02-17 13:25:00,38.6,15.7,30.16,West,273,12.0,18.0,39,0.00,,,0.02,Wunderground v.1.15,2013-02-17 18:25:00,
2013-02-17 13:35:00,39.2,16.9,30.16,NW,310,8.0,11.0,40,0.00,,,0.02,Wunderground v.1.15,2013-02-17 18:35:00,
2013-02-17 13:40:00,39.6,16.6,30.16,NW,313,7.0,7.0,39,0.00,,,0.02,Wunderground v.1.15,2013-02-17 18:40:00,
2013-02-17 13:50:00,39.1,15.6,30.16,WNW,296,13.0,13.0,38,0.00,,,0.02,Wunderground v.1.15,2013-02-17 18:50:00,
2013-02-17 14:00:00,39.3,14.5,30.16,NW,311,11.0,17.0,36,0.00,,,0.02,Wunderground v.1.15,2013-02-17 19:00:00,
2013-02-17 14:10:00,39.2,15.1,30.16,NW,308,13.0,13.0,37,0.00,,,0.02,Wunderground v.1.15,2013-02-17 19:10:00,
2013-02-17 14:15:00,39.5,14.7,30.16,WNW,296,13.0,13.0,36,0.00,,,0.02,Wunderground v.1.15,2013-02-17 19:15:00,
2013-02-17 14:25:00,39.6,15.4,30.16,WNW,302,11.0,17.0,37,0.00,,,0.02,Wunderground v.1.15,2013-02-17 19:25:00,
2013-02-17 14:35:00,39.9,15.1,30.16,WNW,291,10.0,13.0,36,0.00,,,0.02,Wunderground v.1.15,2013-02-17 19:35:00,
2013-02-17 14:45:00,40.5,16.2,30.15,NW,309,8.0,20.0,37,0.00,,,0.02,Wunderground v.1.15,2013-02-17 19:45:00,
2013-02-17 14:55:00,40.5,15.6,30.16,NW,323,10.0,15.0,36,0.00,,,0.02,Wunderground v.1.15,2013-02-17 19:55:00,
2013-02-17 15:00:00,40.5,15.6,30.16,NW,310,10.0,10.0,36,0.00,,,0.02,Wunderground v.1.15,2013-02-17 20:00:00,
2013-02-17 15:10:00,40.5,14.3,30.16,WNW,302,12.0,13.0,34,0.00,,,0.02,Wunderground v.1.15,2013-02-17 20:10:00,
2013-02-17 15:15:00,40.7,17.0,30.16,WNW,298,12.0,13.0,38,0.00,,,0.02,Wunderground v.1.15,2013-02-17 20:15:00,
2013-02-17 15:25:00,40.8,15.9,30.16,WNW,300,11.0,11.0,36,0.00,,,0.02,Wunderground v.1.15,2013-02-17 20:25:00,
2013-02-17 15:35:00,40.7,15.8,30.16,WNW,296,10.0,11.0,36,0.00,,,0.02,Wunderground v.1.15,2013-02-17 20:35:00,
2013-02-17 15:45:00,41.1,16.1,30.16,NNW,333,9.0,12.0,36,0.00,,,0.02,Wunderground v.1.15,2013-02-17 20:45:00,
2013-02-17 15:55:00,41.2,15.6,30.16,NW,315,8.0,9.0,35,0.00,,,0.02,Wunderground v.1.15,2013-02-17 20:55:00,
2013-02-17 16:00:00,41.1,15.5,30.16,WNW,298,8.0,10.0,35,0.00,,,0.02,Wunderground v.1.15,2013-02-17 21:00:00,
2013-02-17 16:10:00,41.5,17.7,30.16,NNW,336,6.0,6.0,38,0.00,,,0.02,Wunderground v.1.15,2013-02-17 21:10:00,
2013-02-17 16:20:00,41.9,16.9,30.16,North,355,6.0,6.0,36,0.00,,,0.02,Wunderground v.1.15,2013-02-17 21:20:00,
2013-02-17 16:30:00,41.8,15.4,30.17,WNW,300,9.0,9.0,34,0.00,,,0.02,Wunderground v.1.15,2013-02-17 21:30:00,
2013-02-17 16:35:00,41.9,15.5,30.17,WNW,286,10.0,10.0,34,0.00,,,0.02,Wunderground v.1.15,2013-02-17 21:35:00,
2013-02-17 16:45:00,41.9,16.2,30.17,WNW,294,7.0,18.0,35,0.00,,,0.02,Wunderground v.1.15,2013-02-17 21:45:00,
2013-02-17 16:55:00,41.9,16.9,30.17,West,265,7.0,10.0,36,0.00,,,0.02,Wunderground v.1.15,2013-02-17 21:55:00,
2013-02-17 17:05:00,41.7,16.7,30.18,WNW,297,8.0,12.0,36,0.00,,,0.02,Wunderground v.1.15,2013-02-17 22:05:00,
2013-02-17 17:15:00,41.7,16.7,30.18,WNW,298,6.0,7.0,36,0.00,,,0.02,Wunderground v.1.15,2013-02-17 22:15:00,
2013-02-17 17:20:00,41.7,17.9,30.18,NW,320,5.0,5.0,38,0.00,,,0.02,Wunderground v.1.15,2013-02-17 22:20:00,
2013-02-17 17:30:00,41.6,17.8,30.19,West,259,4.0,7.0,38,0.00,,,0.02,Wunderground v.1.15,2013-02-17 22:30:00,
2013-02-17 17:35:00,41.4,17.0,30.19,NW,304,6.0,7.0,37,0.00,,,0.02,Wunderground v.1.15,2013-02-17 22:35:00,
2013-02-17 17:45:00,40.9,17.8,30.20,NW,304,6.0,7.0,39,0.00,,,0.02,Wunderground v.1.15,2013-02-17 22:45:00,
2013-02-17 17:50:00,40.6,17.5,30.20,WNW,290,6.0,7.0,39,0.00,,,0.02,Wunderground v.1.15,2013-02-17 22:50:00,
2013-02-17 18:00:00,40.1,17.7,30.20,WNW,292,5.0,5.0,40,0.00,,,0.02,Wunderground v.1.15,2013-02-17 23:00:00,
2013-02-17 18:10:00,39.7,18.5,30.21,WNW,298,4.0,5.0,42,0.00,,,0.02,Wunderground v.1.15,2013-02-17 23:10:00,
2013-02-17 18:20:00,39.5,18.3,30.21,WNW,302,4.0,5.0,42,0.00,,,0.02,Wunderground v.1.15,2013-02-17 23:20:00,
2013-02-17 18:25:00,39.4,19.3,30.21,WNW,292,2.0,5.0,44,0.00,,,0.02,Wunderground v.1.15,2013-02-17 23:25:00,
2013-02-17 18:35:00,39.1,19.0,30.22,WNW,293,0.0,1.0,44,0.00,,,0.02,Wunderground v.1.15,2013-02-17 23:35:00,
2013-02-17 18:45:00,38.9,19.3,30.22,WNW,293,0.0,0.0,45,0.00,,,0.02,Wunderground v.1.15,2013-02-17 23:45:00,
2013-02-17 18:55:00,38.7,20.7,30.23,WNW,293,0.0,0.0,48,0.00,,,0.02,Wunderground v.1.15,2013-02-17 23:55:00,
2013-02-17 19:00:00,38.6,21.5,30.23,WNW,293,0.0,0.0,50,0.00,,,0.02,Wunderground v.1.15,2013-02-18 00:00:00,
2013-02-17 19:10:00,37.9,19.9,30.23,WNW,293,0.0,0.0,48,0.00,,,0.02,Wunderground v.1.15,2013-02-18 00:10:00,
2013-02-17 19:20:00,37.0,21.0,30.23,WNW,293,0.0,0.0,52,0.00,,,0.02,Wunderground v.1.15,2013-02-18 00:20:00,
2013-02-17 19:30:00,36.5,21.0,30.24,WNW,293,0.0,0.0,53,0.00,,,0.02,Wunderground v.1.15,2013-02-18 00:30:00,
2013-02-17 19:40:00,36.4,21.3,30.24,WNW,293,0.0,0.0,54,0.00,,,0.02,Wunderground v.1.15,2013-02-18 00:40:00,
2013-02-17 19:45:00,36.4,21.8,30.25,WNW,293,0.0,0.0,55,0.00,,,0.02,Wunderground v.1.15,2013-02-18 00:45:00,
2013-02-17 19:55:00,36.3,25.3,30.25,WNW,293,0.0,0.0,64,0.00,,,0.02,Wunderground v.1.15,2013-02-18 00:55:00,
2013-02-17 20:05:00,35.7,25.8,30.25,WNW,293,0.0,0.0,67,0.00,,,0.02,Wunderground v.1.15,2013-02-18 01:05:00,
2013-02-17 20:10:00,35.2,24.2,30.25,WNW,293,0.0,0.0,64,0.00,,,0.02,Wunderground v.1.15,2013-02-18 01:10:00,
2013-02-17 20:15:00,34.9,23.9,30.25,WNW,293,0.0,0.0,64,0.00,,,0.02,Wunderground v.1.15,2013-02-18 01:15:00,
2013-02-17 20:25:00,34.5,22.8,30.26,WNW,293,0.0,0.0,62,0.00,,,0.02,Wunderground v.1.15,2013-02-18 01:25:00,
2013-02-17 20:30:00,34.3,23.4,30.26,WNW,293,0.0,0.0,64,0.00,,,0.02,Wunderground v.1.15,2013-02-18 01:30:00,
2013-02-17 20:40:00,34.2,25.4,30.27,West,268,0.0,0.0,70,0.00,,,0.02,Wunderground v.1.15,2013-02-18 01:40:00,
2013-02-17 20:50:00,33.8,25.4,30.27,West,268,0.0,0.0,71,0.00,,,0.02,Wunderground v.1.15,2013-02-18 01:50:00,
2013-02-17 21:00:00,33.5,23.4,30.28,West,268,0.0,0.0,66,0.00,,,0.02,Wunderground v.1.15,2013-02-18 02:00:00,
2013-02-17 21:05:00,33.6,23.4,30.28,West,268,0.0,0.0,66,0.00,,,0.02,Wunderground v.1.15,2013-02-18 02:05:00,
2013-02-17 21:15:00,33.7,23.2,30.28,West,268,0.0,0.0,65,0.00,,,0.02,Wunderground v.1.15,2013-02-18 02:15:00,
2013-02-17 21:20:00,33.7,24.3,30.28,West,268,0.0,0.0,68,0.00,,,0.02,Wunderground v.1.15,2013-02-18 02:20:00,
2013-02-17 21:30:00,33.6,25.2,30.28,West,268,0.0,0.0,71,0.00,,,0.02,Wunderground v.1.15,2013-02-18 02:30:00,
2013-02-17 21:35:00,33.3,24.9,30.28,West,268,0.0,0.0,71,0.00,,,0.02,Wunderground v.1.15,2013-02-18 02:35:00,
2013-02-17 21:45:00,33.0,22.9,30.28,West,268,0.0,0.0,66,0.00,,,0.02,Wunderground v.1.15,2013-02-18 02:45:00,
2013-02-17 21:55:00,33.2,22.3,30.29,West,268,0.0,0.0,64,0.00,,,0.02,Wunderground v.1.15,2013-02-18 02:55:00,
2013-02-17 22:05:00,33.6,22.0,30.29,West,268,0.0,0.0,62,0.00,,,0.02,Wunderground v.1.15,2013-02-18 03:05:00,
2013-02-17 22:15:00,34.0,22.7,30.29,West,268,0.0,0.0,63,0.00,,,0.02,Wunderground v.1.15,2013-02-18 03:15:00,
2013-02-17 22:25:00,34.2,21.7,30.29,West,268,0.0,0.0,60,0.00,,,0.02,Wunderground v.1.15,2013-02-18 03:25:00,
2013-02-17 22:35:00,34.4,23.1,30.29,West,268,0.0,0.0,63,0.00,,,0.02,Wunderground v.1.15,2013-02-18 03:35:00,
2013-02-17 22:40:00,34.4,23.5,30.28,West,268,0.0,0.0,64,0.00,,,0.02,Wunderground v.1.15,2013-02-18 03:40:00,
2013-02-17 22:45:00,34.4,23.8,30.28,West,268,0.0,0.0,65,0.00,,,0.02,Wunderground v.1.15,2013-02-18 03:45:00,
2013-02-17 22:55:00,34.3,24.5,30.28,West,268,0.0,0.0,67,0.00,,,0.02,Wunderground v.1.15,2013-02-18 03:55:00,
2013-02-17 23:00:00,34.2,24.0,30.28,West,268,0.0,0.0,66,0.00,,,0.02,Wunderground v.1.15,2013-02-18 04:00:00,
2013-02-17 23:10:00,33.7,23.9,30.28,West,268,0.0,0.0,67,0.00,,,0.02,Wunderground v.1.15,2013-02-18 04:10:00,
2013-02-17 23:20:00,33.3,22.4,30.28,West,268,0.0,0.0,64,0.00,,,0.02,Wunderground v.1.15,2013-02-18 04:20:00,
2013-02-17 23:25:00,33.3,23.2,30.28,West,268,0.0,0.0,66,0.00,,,0.02,Wunderground v.1.15,2013-02-18 04:25:00,
2013-02-17 23:35:00,33.4,22.1,30.28,West,270,0.0,0.0,63,0.00,,,0.02,Wunderground v.1.15,2013-02-18 04:35:00,
2013-02-17 23:45:00,33.6,23.8,30.29,West,270,0.0,0.0,67,0.00,,,0.02,Wunderground v.1.15,2013-02-18 04:45:00,
2013-02-17 23:55:00,33.8,22.5,30.29,West,281,0.0,0.0,63,0.00,,,0.02,Wunderground v.1.15,2013-02-18 04:55:00,